GEFSGL_500_meanwind_012.txt.gz
Wind_Speed
46 47 47 47 47 47 47 46 44 41 38 35 33 32 32 31 30 30 29 28 28 26 24 23 22 21 21 23 26 27 29 30 31 32 32 33 34 35 36 36 36 36 36
44 44 44 43 43 42 41 39 36 34 32 30 29 29 29 29 30 29 29 27 26 24 23 21 21 22 23 25 26 28 29 30 31 33 34 35 35 37 38 39 39 39 39
39 39 38 37 36 35 35 32 30 28 27 27 29 28 27 28 28 27 28 27 25 24 23 23 23 24 24 25 27 28 29 29 31 33 34 35 36 36 37 38 39 40 39
34 33 33 32 31 30 28 26 23 22 22 24 25 26 26 27 27 26 26 25 24 23 23 23 23 23 24 26 26 27 28 29 31 32 33 34 35 36 37 38 39 39 39
30 29 29 29 27 25 23 21 18 15 15 18 20 21 23 25 25 24 24 24 23 22 22 21 21 22 23 24 25 26 27 29 30 31 32 32 34 35 36 37 38 38 39
28 27 27 26 24 21 19 17 15 11 7 8 9 11 13 15 17 19 20 21 22 22 21 20 20 20 21 22 23 25 27 28 29 30 31 32 34 35 36 37 37 38 38
27 26 25 23 20 17 16 14 12 9 7 5 4 6 8 10 12 13 15 17 18 19 19 19 20 20 21 22 23 25 26 28 29 31 32 33 34 34 35 37 38 38 38
26 25 22 19 17 15 14 11 10 8 7 6 6 7 9 10 11 12 13 14 15 16 17 18 18 18 18 20 22 23 24 25 26 26 28 29 31 33 34 35 35 36 37
25 23 20 16 14 13 12 11 10 9 9 9 9 9 10 10 11 12 13 14 15 15 16 16 16 16 17 17 17 18 18 19 20 23 26 28 31 33 35 36 36 35 35
23 20 17 15 13 12 12 11 11 11 11 11 11 11 12 12 12 12 12 12 12 13 13 14 14 13 13 12 12 14 16 19 22 25 28 30 32 34 35 35 36 35 35
22 19 17 15 14 12 12 12 12 12 11 10 9 9 10 10 10 10 10 10 10 10 11 11 10 9 10 11 13 16 19 22 25 28 29 31 33 34 34 33 32 32 32
24 21 18 16 14 13 13 12 12 10 9 8 7 6 6 6 6 7 7 8 9 9 9 9 8 9 11 13 15 18 21 24 27 29 31 33 34 33 32 30 29 28 28
27 24 21 19 16 14 13 11 11 10 8 7 6 4 4 4 4 5 6 8 9 9 9 9 10 12 14 15 17 20 23 26 28 31 33 33 33 31 30 28 27 26 25
31 28 25 22 19 16 14 12 11 10 8 7 6 6 5 5 6 6 7 8 8 9 9 10 12 13 14 15 18 20 23 26 28 30 32 31 30 28 27 26 25 25 25
33 32 29 25 22 19 16 15 13 12 10 9 8 7 7 7 8 9 9 10 10 10 11 12 12 13 13 15 17 19 22 24 27 28 29 28 27 25 24 23 23 23 24
34 35 32 28 25 22 19 16 15 14 12 11 10 9 9 10 10 10 11 12 12 12 13 13 13 13 14 15 16 18 20 23 25 27 26 25 24 24 22 21 21 21 22
33 37 36 32 28 26 23 19 17 16 15 14 13 12 12 12 12 13 13 14 14 14 14 15 15 14 14 15 16 17 20 22 24 25 25 24 23 22 21 21 20 21 22
32 35 38 36 31 29 26 24 21 20 19 18 17 16 15 15 15 16 16 16 16 16 16 16 15 15 15 15 15 16 19 21 23 24 24 24 23 22 22 21 21 21 22
33 33 38 38 34 31 29 27 25 23 22 21 20 19 18 18 18 18 18 18 18 18 18 17 16 15 15 14 14 15 18 21 23 24 24 24 24 24 24 23 23 23 23
34 32 36 39 38 35 32 29 26 24 23 21 20 20 20 20 19 19 19 19 19 19 19 18 17 16 15 15 14 15 16 19 22 24 25 26 27 26 26 26 25 25 25
33 30 30 35 39 39 36 33 29 27 24 22 20 21 21 20 20 20 20 20 20 20 19 19 18 17 16 15 14 14 16 19 21 24 26 28 29 29 29 28 28 28 27
33 30 27 30 34 37 37 36 33 30 27 24 22 21 22 21 20 20 21 20 20 20 19 19 19 18 17 16 15 15 16 18 20 23 26 28 30 31 31 31 31 31 29
32 29 25 25 28 31 34 35 33 31 28 26 23 21 21 21 20 20 21 21 20 19 18 18 19 18 17 16 15 16 17 18 19 22 26 29 31 33 34 34 34 33 31
31 28 23 22 23 25 27 30 29 28 27 24 22 20 20 20 19 19 19 19 19 18 18 18 19 18 17 17 16 16 18 19 20 22 26 29 33 35 36 37 36 35 33
32 28 23 21 21 22 25 27 26 25 24 22 19 18 18 18 17 17 17 16 16 16 16 17 18 19 19 18 17 18 19 20 22 23 25 28 32 35 37 38 38 36 33
32 28 23 22 22 24 25 25 24 23 21 18 16 15 15 15 15 15 14 13 13 13 14 15 16 18 18 17 17 18 19 20 22 25 27 29 32 34 37 38 39 37 35

GEFSGL_500_meanwind_018.txt.gz
Wind_Speed
42 42 41 39 38 37 37 38 39 39 40 40 40 39 39 37 35 32 30 29 29 28 28 27 25 25 25 26 26 26 25 25 26 23 22 22 23 22 22 22 23 24 25
41 40 40 39 37 36 35 35 35 35 35 35 35 34 33 31 28 26 24 25 25 26 25 25 24 24 24 23 21 20 19 18 18 17 17 18 19 20 21 22 23 24 25
40 40 39 38 35 34 33 32 32 31 31 31 30 29 27 24 23 22 24 26 25 23 23 22 21 20 19 17 15 13 13 12 13 14 14 15 17 18 20 22 24 26 28
39 38 38 36 34 32 31 30 29 28 27 26 24 23 21 20 20 20 23 25 23 22 22 20 18 16 14 13 11 11 11 11 12 13 15 16 18 19 21 23 25 27 29
37 37 36 35 32 31 29 28 26 24 23 22 21 19 17 15 17 18 20 22 22 22 20 17 15 12 10 9 9 10 10 11 13 15 16 17 19 21 23 25 27 29 31
37 36 35 33 31 29 28 26 24 22 20 19 17 15 14 14 16 17 18 19 19 19 16 14 12 10 9 8 9 10 11 12 14 15 17 18 20 22 23 25 27 28 30
37 36 34 32 29 28 27 24 22 20 18 16 14 12 10 10 13 13 14 15 15 13 12 10 9 9 9 9 10 11 12 13 14 15 16 17 18 19 21 22 23 25 27
39 36 34 32 29 27 25 23 20 17 16 15 13 11 10 8 8 9 9 9 9 9 8 8 8 8 8 9 10 10 11 11 11 12 13 14 15 17 18 20 23 25 27
41 38 36 32 29 26 24 22 19 16 15 14 14 12 11 10 9 8 8 7 7 7 7 6 7 7 8 8 8 9 8 8 8 9 10 12 15 18 21 24 26 28 31
43 40 37 33 30 26 24 21 19 16 14 14 13 13 12 10 9 8 7 8 7 7 6 6 7 7 7 7 7 6 6 7 8 10 12 15 18 21 23 25 27 29 31
46 42 38 35 32 27 24 22 20 17 15 13 13 12 11 10 9 8 8 9 8 7 7 6 6 6 6 6 6 6 6 8 9 11 14 17 19 21 23 25 26 27 28
49 44 39 36 33 29 26 24 21 18 15 14 13 11 10 9 8 8 8 8 7 8 7 7 7 6 6 6 6 7 7 9 10 12 15 17 19 21 23 24 25 26 26
51 47 41 37 34 31 28 25 22 19 16 14 12 11 10 9 9 9 9 8 8 8 8 7 7 7 7 7 7 8 9 10 11 13 15 18 19 21 23 25 25 25 25
50 46 43 39 36 33 31 28 24 20 17 15 14 13 12 11 10 10 10 9 8 8 8 7 7 8 8 8 9 9 9 10 11 13 16 17 19 21 23 25 26 26 25
48 45 44 41 37 35 34 30 25 22 19 18 17 15 14 13 12 11 11 10 9 9 8 8 8 9 9 9 9 8 8 10 12 13 15 17 19 21 23 25 26 26 26
46 45 44 42 39 37 36 33 28 24 21 20 19 18 16 14 13 12 12 11 10 10 9 9 9 9 9 9 8 8 9 10 11 12 14 16 19 21 23 25 27 28 27
42 43 43 41 39 38 38 35 31 27 24 23 22 20 18 16 14 12 11 10 9 9 9 9 9 10 10 10 9 9 10 10 9 10 12 15 18 20 23 25 28 29 30
39 40 40 40 40 39 39 37 33 29 26 25 24 23 20 17 15 13 11 10 9 9 9 9 10 11 11 10 10 10 10 9 8 9 11 14 17 20 22 25 28 30 31
38 39 38 39 39 38 39 39 36 32 29 28 27 25 22 19 16 14 12 11 10 10 10 10 11 11 12 12 12 11 10 9 8 9 10 13 16 18 21 25 28 31 32
37 37 37 39 38 38 40 40 38 34 31 29 27 25 23 20 18 16 15 13 12 12 12 12 12 13 13 13 13 12 11 9 9 9 9 11 14 17 20 24 27 30 32
36 37 37 38 37 39 40 39 38 35 32 30 28 26 23 21 19 17 16 14 14 14 14 14 14 15 15 14 14 13 12 11 11 11 11 12 14 17 20 23 26 29 31
35 36 35 36 37 38 39 39 38 36 33 31 29 26 23 21 19 17 16 15 15 15 15 15 16 16 15 15 15 14 14 13 13 13 14 14 15 17 20 22 25 28 30
34 35 35 37 37 37 37 38 38 36 34 31 29 26 23 21 19 17 16 16 16 16 16 16 16 16 15 15 16 16 15 15 16 16 16 17 17 18 20 22 24 28 30
34 33 35 36 35 35 36 36 36 36 34 31 29 27 24 21 19 18 17 17 16 16 16 15 15 15 15 15 16 16 17 17 18 18 19 19 19 19 20 23 26 29 31
34 34 36 36 34 33 33 34 34 34 34 33 31 28 26 23 20 19 18 17 16 15 15 14 13 13 14 14 16 16 17 18 19 20 20 20 20 21 23 25 28 30 33
35 34 36 35 33 31 30 31 31 32 34 34 32 29 26 23 21 19 18 16 15 14 13 12 12 12 13 14 15 17 17 18 19 19 20 20 22 24 26 28 30 33 35

GEFSGL_500_meanwind_024.txt.gz
Wind_Speed
41 40 40 41 41 40 40 39 39 39 39 37 36 34 32 32 31 31 32 33 34 35 35 35 34 33 31 29 27 26 26 26 26 27 29 30 31 32 35 36 36 36 37
45 44 43 42 42 41 40 39 39 39 38 37 36 34 32 30 29 28 28 28 29 29 30 30 29 28 26 25 24 24 25 25 25 27 29 31 31 31 31 32 34 34 35
49 47 45 44 43 42 41 40 39 39 38 37 35 34 31 29 27 25 24 25 25 24 25 25 24 23 23 22 23 25 25 24 24 26 25 25 24 24 23 23 24 24 25
53 51 49 47 45 44 42 41 40 39 38 36 35 33 30 28 26 24 22 21 21 22 22 22 22 23 22 23 24 24 24 23 23 22 21 20 19 18 18 17 18 18 19
57 56 54 52 49 47 45 42 41 39 37 35 34 31 28 26 24 21 20 19 19 20 21 22 22 23 21 21 22 22 22 21 21 20 19 16 15 15 14 14 15 16 17
61 61 60 57 54 50 47 44 42 40 37 34 32 29 26 24 22 20 19 17 16 17 19 21 22 22 21 21 21 21 21 20 18 17 15 14 13 13 13 13 14 16 18
68 67 65 62 59 55 50 47 43 40 36 33 31 28 25 22 21 18 16 15 15 15 16 18 21 21 21 21 19 19 18 16 15 13 12 11 11 11 12 13 14 16 18
74 72 70 67 63 59 53 48 44 40 36 32 30 27 24 21 20 18 15 13 12 12 13 16 18 19 20 20 18 17 15 13 12 11 10 10 10 11 12 12 13 15 16
76 73 71 68 64 60 55 49 45 41 37 32 29 26 23 20 19 17 14 12 10 10 12 13 14 15 17 17 16 14 12 11 10 10 9 9 9 9 10 10 12 14 15
66 63 60 59 58 55 53 50 46 42 38 34 29 26 23 20 18 16 14 12 10 10 11 12 12 13 14 14 13 12 11 10 10 9 8 8 7 8 8 9 11 12 14
50 48 46 46 48 49 49 49 46 43 39 35 30 27 23 20 17 15 13 12 11 11 11 12 13 13 13 13 13 12 11 11 10 9 8 7 6 6 7 8 9 11 13
38 38 39 40 41 42 45 48 47 43 40 35 31 28 24 20 17 15 14 13 12 12 12 13 14 14 14 13 13 12 11 10 9 8 7 6 5 5 6 7 8 10 12
36 36 37 38 37 37 42 46 47 44 40 36 32 29 25 22 19 17 15 14 13 13 14 14 14 14 13 13 12 11 10 9 9 7 6 5 5 5 5 6 7 9 11
38 36 36 34 33 34 41 46 46 44 41 37 33 29 26 22 19 18 17 17 16 16 15 15 14 14 13 13 12 11 10 9 8 7 6 5 4 4 4 4 6 8 10
38 36 35 33 31 32 39 45 46 43 41 37 33 30 26 23 21 20 20 19 19 18 16 15 15 14 14 13 12 11 9 9 8 7 6 5 4 3 2 3 5 7 10
38 35 32 30 29 30 36 41 44 42 40 38 35 32 29 27 25 23 22 21 20 18 17 16 15 14 13 12 11 10 9 9 8 7 6 5 4 3 2 3 5 8 11
36 32 29 28 27 29 36 39 43 41 41 40 37 34 31 28 25 23 22 21 20 18 17 15 14 13 12 12 11 10 10 9 9 7 7 6 5 3 2 3 5 8 11
33 28 27 26 26 30 35 37 41 43 43 41 39 35 32 30 27 24 22 21 19 18 17 15 14 13 12 11 11 10 10 10 9 9 8 7 6 5 3 4 6 8 11
29 26 25 25 25 29 35 38 41 44 44 42 39 36 33 31 28 25 22 21 19 17 16 14 13 12 11 11 11 11 11 11 11 10 10 10 8 7 6 6 7 9 12
25 24 23 24 26 32 35 39 42 44 43 43 40 36 33 30 27 24 22 21 18 16 14 13 12 11 11 11 11 11 12 12 12 12 12 12 11 10 9 9 10 11 13
22 21 22 25 28 31 36 40 41 42 43 42 38 35 32 30 28 26 24 21 19 17 14 13 12 11 11 11 12 12 13 13 14 14 14 14 13 13 12 12 13 13 14
20 22 24 27 30 33 37 40 40 41 42 41 39 36 34 32 30 27 24 21 19 16 14 13 12 11 11 12 13 13 13 14 15 15 16 16 16 16 16 16 16 17 17
20 23 27 29 31 34 38 39 39 41 42 40 38 35 33 31 28 26 23 20 18 16 14 14 13 12 12 12 13 13 14 14 15 16 17 17 18 18 18 19 19 19 20
23 27 29 31 34 35 36 37 38 40 40 39 36 33 31 30 28 25 22 20 17 16 14 14 13 12 12 12 13 13 13 14 15 16 17 18 18 19 20 20 21 21 22
27 30 32 34 34 35 36 37 38 40 39 37 34 31 30 28 26 23 21 18 16 15 13 13 12 12 12 12 12 11 12 12 13 15 16 17 18 19 20 20 21 22 23
31 32 33 34 34 35 35 35 36 37 36 34 32 30 28 26 24 22 19 17 15 14 12 12 12 11 11 11 10 10 10 11 12 13 15 17 18 19 19 19 21 22 24

GEFSGL_500_meanwind_030.txt.gz
Wind_Speed
51 50 49 48 46 45 43 41 39 37 35 33 32 31 31 31 32 33 34 34 33 31 29 28 28 28 30 32 35 36 37 38 38 38 38 38 38 38 36 36 36 36 35
56 56 55 53 52 50 49 46 44 41 39 36 34 33 32 31 32 33 34 34 33 31 29 27 26 26 28 30 32 34 35 36 36 36 36 36 36 35 35 35 34 34 34
62 62 61 59 58 57 54 51 49 46 43 39 36 34 33 32 32 33 34 34 33 31 28 26 24 24 24 26 28 30 31 32 32 33 34 33 33 33 34 34 34 32 32
66 66 66 65 65 64 62 58 54 51 47 44 40 38 36 34 34 33 34 34 33 31 28 25 23 22 22 23 24 26 28 29 30 31 31 31 33 34 33 33 32 31 31
71 72 72 71 70 69 68 64 60 57 52 48 44 42 40 37 36 35 34 34 33 31 28 25 23 22 21 22 22 23 25 26 27 29 30 32 32 32 30 28 27 26 25
78 79 78 79 77 77 75 70 65 62 58 54 49 45 43 40 38 36 35 34 33 30 27 25 23 22 22 21 22 24 26 26 27 28 31 31 29 28 26 24 23 21 20
84 84 84 83 82 81 79 75 71 66 63 59 53 50 46 43 40 38 36 34 32 30 26 23 22 22 22 22 23 24 26 27 27 28 28 27 25 22 20 17 15 14 13
70 72 74 76 78 78 78 76 73 69 66 61 56 52 50 47 43 40 37 35 32 29 26 22 21 21 21 22 23 24 24 24 24 24 22 20 19 17 16 14 13 11 10
48 49 52 55 58 60 63 66 67 66 64 60 56 52 49 46 44 41 38 35 32 29 25 22 20 19 19 22 23 23 22 22 22 20 18 17 15 14 13 11 10 9 9
35 35 35 35 37 40 43 47 50 53 54 53 51 48 46 43 42 40 37 34 31 28 24 21 19 19 18 19 20 21 20 19 18 16 15 14 13 11 10 10 9 9 8
36 34 31 30 28 28 29 32 36 39 42 45 47 45 44 42 41 40 36 33 31 28 24 22 20 18 18 18 18 17 17 16 15 14 13 12 12 11 10 9 8 8 7
39 37 34 31 29 27 25 25 28 32 35 37 43 45 44 42 41 39 36 33 30 26 24 21 20 19 18 18 17 17 16 15 14 14 13 12 11 10 9 9 8 7 7
42 40 37 34 30 29 27 27 27 29 33 36 40 44 44 41 39 38 36 32 29 26 23 21 20 19 18 18 17 17 16 16 15 14 14 13 11 10 10 9 8 7 6
43 41 38 35 32 30 29 27 27 27 32 36 39 42 42 43 40 38 34 30 28 26 24 23 22 21 20 19 18 17 17 16 15 14 14 13 12 11 10 9 8 8 7
42 40 37 35 33 31 29 28 27 27 30 36 41 41 41 42 40 37 34 30 28 26 25 23 23 22 21 19 18 17 17 16 15 14 14 13 12 11 11 10 9 8 8
38 36 34 32 31 31 30 29 29 28 28 31 37 41 42 41 40 38 35 32 30 27 25 24 23 22 21 20 19 17 16 16 15 14 13 13 12 12 12 11 11 10 9
34 33 32 30 29 29 29 29 27 26 26 28 33 38 40 42 41 38 35 33 30 28 26 25 24 23 21 20 19 17 16 15 15 14 14 14 13 13 13 13 12 12 11
29 28 27 27 26 25 26 27 25 25 26 28 33 39 40 42 41 38 36 33 31 28 27 25 24 23 21 20 18 17 16 16 15 14 14 15 15 15 15 15 14 13 12
22 21 21 23 24 24 24 25 24 25 27 30 35 40 41 43 41 38 35 33 31 29 27 25 24 22 21 19 18 17 16 15 15 15 15 16 16 16 16 16 15 15 14
15 16 17 19 21 21 23 24 25 27 30 33 36 39 40 41 40 38 35 34 33 31 28 26 24 22 20 19 17 16 15 15 14 15 16 17 17 17 17 17 17 16 16
8 11 15 18 20 21 23 25 27 30 33 35 38 40 39 38 37 35 33 32 31 29 27 25 23 22 20 18 17 16 15 14 14 15 16 17 18 18 18 18 18 18 18
8 13 17 19 21 22 24 27 28 32 35 37 40 40 39 37 36 35 33 32 30 28 26 24 23 21 19 17 16 15 15 14 14 15 16 17 18 19 19 19 19 19 20
15 18 20 21 22 24 27 28 31 36 38 39 40 40 39 38 36 35 33 32 30 28 26 23 21 19 17 16 15 15 14 14 14 15 16 16 17 18 19 19 20 20 21
20 21 23 24 25 27 29 31 34 37 38 40 39 38 38 37 36 34 32 30 28 26 24 22 19 18 16 15 15 14 14 14 14 15 15 16 17 17 18 19 19 20 21
24 25 26 27 28 30 31 33 36 38 38 38 37 38 36 35 34 32 30 28 25 23 21 19 17 16 15 14 14 14 14 14 14 15 15 16 17 17 17 18 19 20 21
27 28 29 30 31 32 33 34 36 37 36 35 35 35 34 33 32 30 27 25 23 21 19 16 15 14 14 13 14 14 14 14 15 15 15 16 17 17 18 19 20 21 22